This is the latest recevied weather packets stored in our database for station/object K4CRS-13. If no packets are shown the sender has not sent any weather packets the latest 1 day(s).
| Time | Temp. | Humidity | Pressure | Rain* | Wind** | Luminosity | Snow |
|---|---|---|---|---|---|---|---|
| 1778048019 | 21.11° C | 81% | 1044.8 hPa | 0 mm | 1.34 m/s, 187° | 0 W/m² | - |
| 1778047717 | 21.11° C | 81% | 1044.9 hPa | 0 mm | 1.34 m/s, 163° | 0 W/m² | - |
| 1778047415 | 21.11° C | 81% | 1044.8 hPa | 0 mm | 1.79 m/s, 180° | 0 W/m² | - |
| 1778047111 | 21.11° C | 81% | 1044.8 hPa | 0 mm | 1.34 m/s, 163° | 0 W/m² | - |
| 1778046808 | 21.11° C | 80% | 1045 hPa | 0 mm | 1.34 m/s, 188° | 0 W/m² | - |
| 1778046506 | 21.11° C | 81% | 1045.1 hPa | 0 mm | 2.24 m/s, 162° | 0 W/m² | - |
| 1778046202 | 21.11° C | 81% | 1045.1 hPa | 0 mm | 0.89 m/s, 181° | 0 W/m² | - |
| 1778045898 | 21.11° C | 81% | 1045.4 hPa | 0 mm | 1.34 m/s, 190° | 0 W/m² | - |
| 1778045598 | 21.11° C | 81% | 1045 hPa | 0 mm | 1.34 m/s, 194° | 0 W/m² | - |
| 1778045295 | 21.11° C | 80% | 1045.2 hPa | 0 mm | 1.34 m/s, 201° | 0 W/m² | - |
| 1778044993 | 21.11° C | 80% | 1045.1 hPa | 0 mm | 1.34 m/s, 186° | 0 W/m² | - |
| 1778044691 | 21.11° C | 80% | 1045.1 hPa | 0 mm | 1.34 m/s, 186° | 0 W/m² | - |
| 1778044387 | 21.11° C | 80% | 1045.3 hPa | 0 mm | 1.34 m/s, 187° | 0 W/m² | - |
| 1778044085 | 21.11° C | 79% | 1045 hPa | 0 mm | 1.79 m/s, 174° | 0 W/m² | - |
| 1778043782 | 21.11° C | 79% | 1045.1 hPa | 0 mm | 1.34 m/s, 186° | 0 W/m² | - |
| 1778043478 | 21.11° C | 79% | 1045.3 hPa | 0 mm | 1.79 m/s, 188° | 0 W/m² | - |
| 1778043175 | 21.11° C | 79% | 1045.5 hPa | 0 mm | 1.34 m/s, 188° | 0 W/m² | - |
| 1778042872 | 21.11° C | 79% | 1045.2 hPa | 0 mm | 1.79 m/s, 178° | 0 W/m² | - |
| 1778042570 | 21.11° C | 78% | 1045.5 hPa | 0 mm | 1.79 m/s, 197° | 0 W/m² | - |
| 1778042267 | 21.11° C | 78% | 1045.5 hPa | 0 mm | 1.34 m/s, 172° | 0 W/m² | - |
| 1778041964 | 21.11° C | 78% | 1045.7 hPa | 0 mm | 1.34 m/s, 156° | 0 W/m² | - |
| 1778041663 | 21.11° C | 78% | 1045.7 hPa | 0 mm | 1.79 m/s, 196° | 0 W/m² | - |
| 1778041361 | 21.11° C | 79% | 1045.8 hPa | 0 mm | 1.79 m/s, 193° | 0 W/m² | - |
| 1778041059 | 21.11° C | 79% | 1045.3 hPa | 0 mm | 0.89 m/s, 183° | 0 W/m² | - |
| 1778040756 | 21.11° C | 79% | 1045.7 hPa | 0 mm | 1.34 m/s, 184° | 0 W/m² | - |
* Rain latest hour (hover to see other rain measurements)
** Current wind speed in m/s (hover to see current wind gust speed)